�N����,�����b,���ԉ��x,���Ԏ��x,��󒲎�,����,�����W
2004/6/1,0:00:00,22.3 ,69.1 ,21.2 ,19.3 ,21.9 
2004/6/1,0:15:00,22.2 ,68.9 ,21.2 ,19.3 ,21.8 
2004/6/1,0:30:00,22.2 ,68.9 ,21.1 ,19.4 ,21.8 
2004/6/1,0:45:00,22.2 ,68.9 ,21.1 ,19.4 ,21.8 
2004/6/1,1:00:00,22.1 ,68.7 ,21.1 ,19.4 ,21.7 
2004/6/1,1:15:00,22.1 ,68.8 ,21.1 ,19.5 ,21.7 
2004/6/1,1:30:00,22.0 ,68.8 ,21.1 ,19.5 ,21.7 
2004/6/1,1:45:00,22.0 ,69.3 ,21.0 ,19.5 ,21.6 
2004/6/1,2:00:00,21.9 ,69.4 ,21.0 ,19.6 ,21.5 
2004/6/1,2:15:00,21.8 ,69.4 ,21.0 ,19.6 ,21.5 
2004/6/1,2:30:00,21.8 ,69.3 ,20.9 ,19.6 ,21.4 
2004/6/1,2:45:00,21.7 ,69.4 ,20.9 ,19.6 ,21.3 
2004/6/1,3:00:00,21.7 ,69.4 ,20.9 ,19.7 ,21.3 
2004/6/1,3:15:00,21.6 ,69.3 ,20.9 ,19.7 ,21.4 
2004/6/1,3:30:00,21.6 ,69.3 ,20.8 ,19.7 ,21.3 
2004/6/1,3:45:00,21.5 ,69.3 ,20.8 ,19.8 ,21.3 
2004/6/1,4:00:00,21.5 ,69.4 ,20.8 ,19.8 ,21.1 
2004/6/1,4:15:00,21.4 ,69.3 ,20.7 ,19.8 ,21.1 
2004/6/1,4:30:00,21.4 ,69.2 ,20.7 ,19.9 ,21.2 
2004/6/1,4:45:00,21.4 ,69.2 ,20.7 ,19.9 ,21.2 
2004/6/1,5:00:00,21.4 ,69.2 ,20.6 ,19.9 ,21.2 
2004/6/1,5:15:00,21.4 ,69.2 ,20.6 ,19.1 ,21.3 
2004/6/1,5:30:00,21.4 ,69.3 ,20.6 ,19.1 ,21.7 
2004/6/1,5:45:00,21.3 ,69.2 ,20.5 ,19.2 ,21.8 
2004/6/1,6:00:00,21.3 ,69.1 ,20.5 ,19.2 ,21.8 
2004/6/1,6:15:00,21.3 ,69.1 ,20.5 ,19.2 ,21.7 
2004/6/1,6:30:00,21.3 ,69.0 ,20.5 ,19.2 ,21.7 
2004/6/1,6:45:00,21.3 ,69.0 ,20.5 ,19.3 ,21.7 
2004/6/1,7:00:00,21.3 ,68.7 ,20.4 ,18.7 ,21.6 
2004/6/1,7:15:00,21.3 ,68.6 ,20.4 ,18.8 ,21.6 
2004/6/1,7:30:00,21.5 ,68.1 ,20.4 ,18.8 ,21.6 
2004/6/1,7:45:00,21.7 ,68.1 ,20.5 ,18.7 ,21.6 
2004/6/1,8:00:00,21.5 ,67.7 ,20.5 ,18.7 ,21.6 
2004/6/1,8:15:00,21.9 ,67.7 ,20.4 ,18.8 ,21.6 
2004/6/1,8:30:00,22.0 ,67.6 ,20.5 ,18.6 ,21.6 
2004/6/1,8:45:00,22.0 ,67.9 ,20.5 ,18.6 ,21.7 
2004/6/1,9:00:00,22.1 ,67.2 ,20.6 ,18.7 ,21.9 
2004/6/1,9:15:00,22.2 ,67.2 ,20.6 ,18.6 ,22.0 
2004/6/1,9:30:00,21.8 ,64.9 ,20.6 ,18.6 ,22.0 
2004/6/1,9:45:00,21.9 ,65.2 ,20.5 ,18.7 ,22.0 
2004/6/1,10:00:00,21.9 ,64.8 ,20.6 ,18.7 ,22.1 
2004/6/1,10:15:00,21.9 ,63.6 ,20.6 ,18.6 ,22.2 
2004/6/1,10:30:00,21.9 ,62.5 ,20.6 ,18.6 ,22.2 
2004/6/1,10:45:00,22.1 ,58.1 ,20.6 ,18.6 ,22.2 
2004/6/1,11:00:00,22.1 ,49.9 ,20.6 ,18.7 ,22.3 
2004/6/1,11:15:00,22.3 ,48.9 ,20.6 ,18.7 ,22.3 
2004/6/1,11:30:00,22.3 ,43.3 ,20.6 ,18.8 ,22.4 
2004/6/1,11:45:00,22.3 ,40.8 ,20.6 ,18.8 ,22.4 
2004/6/1,12:00:00,22.2 ,41.5 ,20.5 ,18.8 ,22.5 
2004/6/1,12:15:00,22.4 ,42.2 ,20.5 ,18.9 ,22.5 
2004/6/1,12:30:00,21.8 ,41.4 ,20.5 ,18.9 ,22.4 
2004/6/1,12:45:00,22.6 ,43.4 ,20.4 ,19.0 ,22.7 
2004/6/1,13:00:00,22.7 ,44.1 ,20.4 ,19.0 ,22.8 
2004/6/1,13:15:00,22.8 ,48.5 ,20.4 ,19.0 ,22.8 
2004/6/1,13:30:00,22.8 ,54.1 ,20.4 ,18.6 ,22.9 
2004/6/1,13:45:00,22.9 ,54.8 ,20.5 ,18.6 ,22.9 
2004/6/1,14:00:00,23.0 ,55.4 ,20.5 ,18.6 ,23.3 
2004/6/1,14:15:00,22.8 ,55.4 ,20.6 ,18.7 ,23.4 
2004/6/1,14:30:00,22.9 ,56.4 ,20.6 ,18.6 ,23.4 
2004/6/1,14:45:00,22.9 ,55.3 ,20.7 ,18.6 ,23.4 
2004/6/1,15:00:00,22.7 ,54.7 ,20.7 ,18.7 ,23.4 
2004/6/1,15:15:00,22.6 ,50.8 ,20.7 ,18.7 ,23.3 
2004/6/1,15:30:00,22.6 ,49.6 ,20.7 ,18.8 ,23.2 
2004/6/1,15:45:00,22.6 ,51.4 ,20.7 ,18.8 ,23.3 
2004/6/1,16:00:00,22.5 ,52.8 ,20.8 ,18.9 ,23.1 
2004/6/1,16:15:00,22.3 ,52.6 ,20.8 ,18.9 ,23.0 
2004/6/1,16:30:00,22.5 ,52.0 ,20.8 ,18.6 ,22.9 
2004/6/1,16:45:00,22.6 ,51.7 ,20.8 ,18.6 ,22.8 
2004/6/1,17:00:00,22.8 ,51.8 ,20.8 ,18.7 ,22.9 
2004/6/1,17:15:00,22.8 ,52.2 ,20.9 ,18.7 ,22.9 
2004/6/1,17:30:00,22.8 ,52.1 ,20.9 ,18.8 ,23.0 
2004/6/1,17:45:00,21.8 ,50.1 ,21.0 ,18.8 ,22.9 
2004/6/1,18:00:00,22.4 ,51.0 ,20.9 ,18.8 ,22.8 
2004/6/1,18:15:00,22.4 ,51.2 ,20.9 ,18.9 ,22.8 
2004/6/1,18:30:00,22.2 ,51.8 ,20.9 ,18.9 ,22.7 
2004/6/1,18:45:00,22.0 ,53.3 ,20.8 ,19.0 ,22.7 
2004/6/1,19:00:00,21.9 ,54.5 ,20.8 ,19.0 ,22.6 
2004/6/1,19:15:00,21.7 ,56.9 ,20.7 ,19.0 ,22.4 
2004/6/1,19:30:00,21.9 ,56.3 ,20.7 ,18.5 ,22.4 
2004/6/1,19:45:00,21.9 ,56.9 ,20.7 ,18.5 ,22.4 
2004/6/1,20:00:00,21.9 ,57.5 ,20.7 ,18.6 ,22.5 
2004/6/1,20:15:00,22.1 ,57.9 ,20.7 ,18.6 ,23.5 
2004/6/1,20:30:00,22.1 ,57.5 ,20.6 ,18.6 ,24.9 
2004/6/1,20:45:00,22.1 ,58.7 ,20.6 ,18.6 ,24.4 
2004/6/1,21:00:00,22.0 ,58.4 ,20.6 ,18.7 ,23.9 
2004/6/1,21:15:00,22.0 ,59.1 ,20.5 ,18.7 ,23.5 
2004/6/1,21:30:00,22.0 ,59.6 ,20.5 ,18.9 ,23.3 
2004/6/1,21:45:00,22.2 ,59.9 ,20.5 ,18.7 ,23.6 
2004/6/1,22:00:00,22.1 ,61.1 ,20.6 ,18.6 ,23.4 
2004/6/1,22:15:00,21.9 ,61.9 ,20.6 ,18.6 ,23.2 
2004/6/1,22:30:00,21.9 ,62.7 ,20.6 ,18.7 ,23.1 
2004/6/1,22:45:00,21.8 ,63.3 ,20.6 ,18.7 ,22.9 
2004/6/1,23:00:00,21.8 ,63.3 ,20.5 ,18.8 ,22.8 
2004/6/1,23:15:00,21.7 ,63.0 ,20.5 ,18.8 ,22.7 
2004/6/1,23:30:00,21.7 ,62.6 ,20.5 ,18.8 ,22.5 
2004/6/1,23:45:00,21.6 ,62.3 ,20.5 ,18.9 ,22.4 
2004/6/2,0:00:00,21.6 ,62.2 ,20.4 ,18.9 ,22.3 
2004/6/2,0:15:00,21.5 ,62.0 ,20.4 ,18.9 ,22.2 
2004/6/2,0:30:00,21.5 ,62.0 ,20.4 ,19.0 ,22.1 
2004/6/2,0:45:00,21.4 ,61.9 ,20.4 ,19.0 ,22.0 
2004/6/2,1:00:00,21.4 ,62.0 ,20.3 ,19.1 ,21.9 
2004/6/2,1:15:00,21.3 ,62.2 ,20.3 ,19.1 ,21.8 
2004/6/2,1:30:00,21.2 ,63.0 ,20.3 ,19.1 ,21.7 
2004/6/2,1:45:00,21.2 ,63.5 ,20.3 ,19.2 ,21.4 
2004/6/2,2:00:00,21.2 ,63.3 ,20.2 ,19.2 ,21.3 
2004/6/2,2:15:00,21.1 ,63.1 ,20.2 ,19.2 ,21.1 
2004/6/2,2:30:00,21.1 ,63.0 ,20.2 ,19.3 ,21.0 
2004/6/2,2:45:00,21.0 ,62.9 ,20.1 ,19.3 ,20.9 
2004/6/2,3:00:00,20.9 ,62.8 ,20.1 ,19.3 ,20.8 
2004/6/2,3:15:00,20.9 ,62.7 ,20.1 ,19.4 ,20.8 
2004/6/2,3:30:00,20.9 ,62.7 ,20.0 ,19.4 ,20.8 
2004/6/2,3:45:00,20.8 ,62.7 ,20.0 ,19.4 ,20.7 
2004/6/2,4:00:00,20.7 ,62.5 ,20.0 ,19.4 ,20.6 
2004/6/2,4:15:00,20.9 ,62.4 ,19.9 ,18.9 ,21.0 
2004/6/2,4:30:00,20.8 ,62.4 ,19.9 ,18.9 ,21.2 
2004/6/2,4:45:00,20.8 ,62.2 ,19.9 ,18.9 ,21.3 
2004/6/2,5:00:00,20.8 ,62.3 ,19.8 ,18.9 ,21.3 
2004/6/2,5:15:00,20.8 ,61.6 ,19.8 ,19.0 ,21.3 
2004/6/2,5:30:00,20.9 ,61.5 ,19.8 ,19.0 ,21.2 
2004/6/2,5:45:00,21.0 ,61.1 ,19.8 ,19.0 ,21.0 
2004/6/2,6:00:00,21.2 ,60.7 ,19.8 ,19.1 ,21.0 
2004/6/2,6:15:00,21.2 ,60.7 ,19.8 ,19.1 ,20.9 
2004/6/2,6:30:00,21.3 ,60.7 ,19.8 ,19.1 ,20.8 
2004/6/2,6:45:00,21.3 ,60.4 ,19.8 ,19.2 ,20.8 
2004/6/2,7:00:00,21.4 ,60.4 ,19.9 ,18.8 ,20.9 
2004/6/2,7:15:00,21.5 ,60.4 ,19.9 ,18.9 ,20.9 
2004/6/2,7:30:00,22.2 ,58.4 ,19.9 ,18.8 ,21.1 
2004/6/2,7:45:00,22.2 ,58.7 ,19.9 ,18.8 ,21.5 
2004/6/2,8:00:00,22.4 ,58.2 ,20.0 ,18.9 ,21.6 
2004/6/2,8:15:00,22.5 ,58.4 ,20.1 ,18.7 ,21.9 
2004/6/2,8:30:00,22.5 ,58.4 ,20.1 ,18.7 ,22.0 
2004/6/2,8:45:00,22.3 ,57.7 ,20.2 ,18.7 ,22.1 
2004/6/2,9:00:00,22.4 ,58.5 ,20.2 ,18.7 ,22.2 
2004/6/2,9:15:00,22.4 ,56.9 ,20.2 ,18.7 ,22.2 
2004/6/2,9:30:00,22.4 ,55.9 ,20.3 ,18.7 ,22.3 
2004/6/2,9:45:00,22.3 ,54.1 ,20.3 ,18.8 ,22.5 
2004/6/2,10:00:00,22.5 ,51.5 ,20.3 ,18.8 ,22.5 
2004/6/2,10:15:00,22.6 ,48.1 ,20.3 ,18.8 ,22.5 
2004/6/2,10:30:00,22.5 ,50.3 ,20.3 ,18.9 ,22.5 
2004/6/2,10:45:00,22.7 ,46.0 ,20.4 ,18.9 ,22.6 
2004/6/2,11:00:00,22.6 ,44.7 ,20.4 ,18.9 ,22.6 
2004/6/2,11:15:00,22.6 ,44.1 ,20.4 ,19.0 ,22.6 
2004/6/2,11:30:00,22.7 ,43.9 ,20.4 ,19.0 ,22.6 
2004/6/2,11:45:00,22.7 ,42.1 ,20.4 ,19.0 ,22.6 
2004/6/2,12:00:00,22.7 ,41.4 ,20.4 ,19.1 ,22.7 
2004/6/2,12:15:00,22.8 ,40.6 ,20.4 ,19.1 ,22.7 
2004/6/2,12:30:00,22.8 ,43.3 ,20.4 ,19.2 ,22.7 
2004/6/2,12:45:00,22.9 ,43.4 ,20.4 ,19.2 ,22.7 
2004/6/2,13:00:00,22.8 ,42.2 ,20.4 ,19.2 ,22.8 
2004/6/2,13:15:00,22.8 ,43.1 ,20.4 ,19.3 ,22.8 
2004/6/2,13:30:00,22.9 ,42.4 ,20.5 ,19.3 ,22.8 
2004/6/2,13:45:00,22.9 ,41.7 ,20.5 ,19.3 ,22.8 
2004/6/2,14:00:00,22.9 ,41.8 ,20.5 ,19.4 ,22.8 
2004/6/2,14:15:00,23.0 ,42.3 ,20.5 ,19.4 ,22.8 
2004/6/2,14:30:00,23.0 ,42.0 ,20.6 ,19.4 ,22.9 
2004/6/2,14:45:00,23.0 ,40.6 ,20.6 ,19.5 ,22.9 
2004/6/2,15:00:00,23.0 ,37.3 ,20.6 ,18.8 ,23.0 
2004/6/2,15:15:00,22.9 ,37.7 ,20.6 ,18.9 ,22.9 
2004/6/2,15:30:00,22.8 ,40.2 ,20.6 ,18.9 ,22.9 
2004/6/2,15:45:00,22.8 ,41.6 ,20.6 ,18.9 ,22.9 
2004/6/2,16:00:00,22.8 ,43.9 ,20.7 ,19.0 ,22.8 
2004/6/2,16:15:00,22.7 ,45.3 ,20.7 ,19.0 ,22.8 
2004/6/2,16:30:00,22.6 ,45.6 ,20.7 ,19.1 ,22.8 
2004/6/2,16:45:00,22.4 ,42.7 ,20.8 ,19.1 ,22.8 
2004/6/2,17:00:00,22.3 ,43.1 ,20.8 ,19.1 ,22.7 
2004/6/2,17:15:00,22.3 ,43.7 ,20.8 ,19.2 ,22.7 
2004/6/2,17:30:00,22.1 ,45.8 ,20.8 ,19.2 ,22.6 
2004/6/2,17:45:00,22.0 ,43.8 ,20.7 ,19.2 ,22.7 
2004/6/2,18:00:00,21.9 ,44.5 ,20.7 ,19.3 ,23.9 
2004/6/2,18:15:00,21.7 ,46.2 ,20.7 ,19.3 ,23.6 
2004/6/2,18:30:00,21.5 ,46.9 ,20.6 ,19.4 ,23.3 
2004/6/2,18:45:00,21.7 ,48.0 ,20.6 ,18.7 ,23.1 
2004/6/2,19:00:00,21.7 ,49.2 ,20.6 ,18.7 ,23.2 
2004/6/2,19:15:00,21.6 ,49.8 ,20.6 ,18.8 ,23.5 
2004/6/2,19:30:00,22.0 ,49.6 ,20.5 ,18.8 ,23.6 
2004/6/2,19:45:00,22.1 ,50.2 ,20.6 ,18.8 ,23.6 
2004/6/2,20:00:00,22.3 ,50.0 ,20.6 ,18.9 ,23.9 
2004/6/2,20:15:00,22.4 ,50.5 ,20.6 ,18.9 ,23.7 
2004/6/2,20:30:00,22.4 ,51.0 ,20.6 ,18.9 ,23.6 
2004/6/2,20:45:00,22.4 ,51.1 ,20.6 ,19.0 ,23.7 
2004/6/2,21:00:00,22.3 ,51.9 ,20.6 ,19.0 ,23.4 
2004/6/2,21:15:00,22.2 ,52.2 ,20.6 ,19.1 ,23.3 
2004/6/2,21:30:00,22.2 ,52.9 ,20.6 ,19.1 ,23.1 
2004/6/2,21:45:00,22.2 ,53.1 ,20.6 ,18.8 ,23.0 
2004/6/2,22:00:00,22.1 ,53.7 ,20.6 ,18.8 ,22.8 
2004/6/2,22:15:00,22.0 ,54.0 ,20.6 ,18.8 ,22.6 
2004/6/2,22:30:00,22.0 ,55.0 ,20.6 ,18.9 ,22.5 
2004/6/2,22:45:00,21.9 ,55.7 ,20.6 ,18.9 ,22.4 
2004/6/2,23:00:00,21.9 ,55.6 ,20.6 ,18.9 ,22.2 
2004/6/2,23:15:00,21.9 ,55.6 ,20.5 ,19.0 ,22.0 
2004/6/2,23:30:00,21.8 ,55.9 ,20.5 ,19.0 ,22.0 
2004/6/2,23:45:00,21.8 ,56.0 ,20.5 ,19.0 ,21.8 
2004/6/3,0:00:00,21.7 ,56.4 ,20.5 ,19.1 ,21.6 
2004/6/3,0:15:00,21.5 ,56.6 ,20.5 ,19.1 ,21.4 
2004/6/3,0:30:00,21.4 ,56.7 ,20.4 ,19.1 ,21.3 
2004/6/3,0:45:00,21.4 ,58.2 ,20.4 ,19.2 ,21.3 
2004/6/3,1:00:00,21.4 ,57.9 ,20.4 ,19.2 ,21.3 
2004/6/3,1:15:00,21.3 ,57.6 ,20.3 ,19.2 ,21.3 
2004/6/3,1:30:00,21.2 ,57.5 ,20.3 ,19.3 ,21.2 
2004/6/3,1:45:00,21.1 ,57.5 ,20.3 ,19.3 ,21.1 
2004/6/3,2:00:00,21.1 ,57.5 ,20.2 ,19.3 ,20.9 
2004/6/3,2:15:00,21.0 ,57.5 ,20.2 ,19.4 ,20.8 
2004/6/3,2:30:00,20.9 ,57.5 ,20.1 ,19.4 ,20.8 
2004/6/3,2:45:00,20.9 ,57.5 ,20.1 ,19.4 ,20.7 
2004/6/3,3:00:00,20.8 ,57.6 ,20.0 ,19.4 ,20.6 
2004/6/3,3:15:00,20.7 ,57.6 ,20.0 ,19.5 ,20.5 
2004/6/3,3:30:00,20.7 ,57.6 ,20.0 ,19.5 ,20.5 
2004/6/3,3:45:00,20.6 ,57.7 ,19.9 ,19.5 ,20.4 
2004/6/3,4:00:00,20.5 ,57.7 ,19.9 ,19.5 ,20.3 
2004/6/3,4:15:00,20.5 ,57.9 ,19.8 ,18.9 ,20.7 
2004/6/3,4:30:00,20.5 ,58.0 ,19.8 ,18.9 ,20.9 
2004/6/3,4:45:00,20.5 ,57.9 ,19.8 ,18.9 ,21.0 
2004/6/3,5:00:00,20.6 ,57.6 ,19.7 ,19.0 ,21.0 
2004/6/3,5:15:00,20.8 ,57.0 ,19.7 ,19.0 ,20.9 
2004/6/3,5:30:00,21.0 ,56.6 ,19.7 ,19.0 ,20.7 
2004/6/3,5:45:00,21.1 ,56.3 ,19.7 ,19.1 ,20.7 
2004/6/3,6:00:00,21.2 ,56.2 ,19.7 ,19.1 ,20.6 
2004/6/3,6:15:00,21.4 ,55.9 ,19.7 ,18.9 ,20.7 
2004/6/3,6:30:00,21.6 ,55.9 ,19.8 ,18.9 ,20.7 
2004/6/3,6:45:00,21.7 ,55.5 ,19.8 ,18.7 ,20.9 
2004/6/3,7:00:00,21.8 ,55.7 ,19.8 ,18.7 ,21.1 
2004/6/3,7:15:00,23.4 ,51.8 ,19.9 ,18.6 ,21.3 
2004/6/3,7:30:00,23.9 ,50.8 ,20.0 ,18.7 ,21.6 
2004/6/3,7:45:00,23.0 ,53.1 ,20.0 ,18.7 ,21.8 
2004/6/3,8:00:00,23.2 ,52.8 ,20.1 ,18.8 ,22.0 
2004/6/3,8:15:00,23.0 ,52.5 ,20.2 ,18.8 ,22.2 
2004/6/3,8:30:00,23.2 ,51.4 ,20.2 ,18.8 ,22.4 
2004/6/3,8:45:00,22.8 ,48.7 ,20.3 ,18.8 ,22.4 
2004/6/3,9:00:00,22.6 ,45.4 ,20.4 ,18.9 ,22.5 
2004/6/3,9:15:00,22.5 ,44.6 ,20.2 ,18.9 ,22.5 
2004/6/3,9:30:00,22.8 ,41.3 ,20.3 ,18.9 ,22.5 
2004/6/3,9:45:00,22.7 ,38.9 ,20.4 ,19.0 ,22.6 
2004/6/3,10:00:00,22.9 ,40.9 ,20.4 ,18.6 ,22.6 
2004/6/3,10:15:00,22.8 ,39.9 ,20.4 ,18.6 ,22.6 
2004/6/3,10:30:00,22.9 ,39.9 ,20.4 ,18.7 ,22.7 
2004/6/3,10:45:00,22.8 ,39.0 ,20.4 ,18.7 ,22.7 
2004/6/3,11:00:00,22.9 ,38.6 ,20.4 ,18.8 ,22.8 
2004/6/3,11:15:00,23.0 ,38.2 ,20.4 ,18.8 ,22.8 
2004/6/3,11:30:00,23.1 ,36.1 ,20.4 ,18.8 ,22.9 
2004/6/3,11:45:00,23.1 ,37.0 ,20.4 ,18.9 ,23.0 
2004/6/3,12:00:00,23.2 ,36.4 ,20.4 ,18.9 ,23.0 
2004/6/3,12:15:00,23.2 ,37.8 ,20.4 ,19.0 ,23.1 
2004/6/3,12:30:00,23.3 ,36.6 ,20.5 ,18.6 ,23.2 
2004/6/3,12:45:00,23.7 ,37.0 ,20.5 ,18.9 ,23.3 
2004/6/3,13:00:00,23.9 ,35.4 ,20.6 ,18.9 ,23.4 
2004/6/3,13:15:00,23.8 ,36.8 ,20.6 ,18.9 ,23.5 
2004/6/3,13:30:00,23.8 ,37.5 ,21.3 ,18.8 ,23.5 
2004/6/3,13:45:00,23.7 ,41.0 ,21.6 ,18.9 ,23.5 
2004/6/3,14:00:00,23.6 ,41.8 ,21.9 ,18.9 ,23.5 
2004/6/3,14:15:00,23.7 ,41.6 ,22.0 ,18.9 ,23.5 
2004/6/3,14:30:00,23.5 ,42.2 ,22.2 ,19.0 ,23.5 
2004/6/3,14:45:00,23.5 ,41.6 ,22.2 ,19.0 ,23.5 
2004/6/3,15:00:00,23.7 ,41.6 ,22.2 ,18.7 ,23.5 
2004/6/3,15:15:00,23.7 ,38.4 ,22.0 ,18.7 ,23.5 
2004/6/3,15:30:00,23.6 ,37.2 ,22.0 ,18.7 ,23.5 
2004/6/3,15:45:00,23.5 ,38.9 ,21.9 ,18.8 ,23.4 
2004/6/3,16:00:00,23.4 ,40.2 ,21.9 ,18.8 ,23.4 
2004/6/3,16:15:00,23.3 ,41.3 ,21.8 ,18.9 ,23.3 
2004/6/3,16:30:00,23.2 ,42.2 ,21.8 ,18.9 ,23.3 
2004/6/3,16:45:00,23.2 ,43.1 ,21.8 ,19.0 ,23.3 
2004/6/3,17:00:00,23.2 ,42.2 ,21.8 ,18.7 ,23.2 
2004/6/3,17:15:00,23.0 ,43.7 ,21.7 ,18.7 ,23.2 
2004/6/3,17:30:00,23.0 ,45.2 ,21.7 ,18.7 ,23.2 
2004/6/3,17:45:00,23.0 ,46.6 ,21.7 ,18.8 ,24.0 
2004/6/3,18:00:00,23.0 ,46.9 ,21.7 ,18.8 ,24.4 
2004/6/3,18:15:00,22.9 ,46.6 ,21.7 ,18.9 ,25.1 
2004/6/3,18:30:00,22.8 ,47.0 ,21.7 ,18.9 ,25.8 
2004/6/3,18:45:00,22.8 ,46.6 ,21.7 ,19.0 ,25.4 
2004/6/3,19:00:00,22.9 ,47.4 ,21.7 ,19.0 ,24.8 
2004/6/3,19:15:00,23.0 ,47.4 ,21.6 ,19.1 ,24.5 
2004/6/3,19:30:00,22.9 ,48.4 ,21.6 ,19.1 ,24.3 
2004/6/3,19:45:00,22.8 ,48.9 ,21.6 ,19.1 ,24.0 
2004/6/3,20:00:00,22.8 ,49.7 ,21.6 ,19.2 ,23.8 
2004/6/3,20:15:00,22.9 ,50.1 ,21.6 ,19.2 ,23.7 
2004/6/3,20:30:00,22.9 ,50.8 ,21.6 ,19.3 ,23.5 
2004/6/3,20:45:00,22.9 ,51.4 ,21.6 ,19.3 ,23.4 
2004/6/3,21:00:00,23.0 ,51.5 ,21.6 ,19.4 ,23.8 
2004/6/3,21:15:00,22.9 ,52.4 ,21.6 ,19.4 ,23.8 
2004/6/3,21:30:00,22.8 ,52.5 ,21.6 ,19.4 ,23.6 
2004/6/3,21:45:00,22.8 ,52.8 ,21.5 ,19.5 ,23.5 
2004/6/3,22:00:00,22.7 ,53.2 ,21.5 ,19.5 ,23.3 
2004/6/3,22:15:00,22.8 ,53.0 ,21.5 ,19.5 ,23.1 
2004/6/3,22:30:00,22.7 ,53.7 ,21.5 ,19.6 ,23.0 
2004/6/3,22:45:00,22.6 ,54.1 ,21.5 ,19.6 ,22.9 
2004/6/3,23:00:00,22.5 ,54.3 ,21.4 ,19.7 ,22.8 
2004/6/3,23:15:00,22.4 ,54.7 ,21.4 ,19.5 ,22.8 
2004/6/3,23:30:00,22.3 ,55.0 ,21.4 ,19.2 ,22.7 
2004/6/3,23:45:00,22.3 ,55.1 ,21.3 ,19.2 ,22.5 
2004/6/4,0:00:00,22.2 ,55.1 ,21.3 ,19.2 ,22.3 
2004/6/4,0:15:00,22.2 ,56.2 ,21.3 ,19.3 ,22.0 
2004/6/4,0:30:00,22.1 ,56.5 ,21.2 ,19.3 ,22.0 
2004/6/4,0:45:00,22.1 ,56.2 ,21.2 ,19.3 ,21.9 
2004/6/4,1:00:00,22.0 ,56.2 ,21.2 ,19.4 ,21.9 
2004/6/4,1:15:00,22.0 ,56.2 ,21.1 ,19.4 ,21.9 
2004/6/4,1:30:00,21.9 ,56.1 ,21.1 ,19.4 ,21.8 
2004/6/4,1:45:00,21.9 ,56.1 ,21.1 ,19.4 ,21.7 
2004/6/4,2:00:00,21.8 ,56.1 ,21.1 ,19.5 ,21.7 
2004/6/4,2:15:00,21.8 ,56.0 ,21.0 ,19.5 ,21.7 
2004/6/4,2:30:00,21.8 ,56.1 ,21.0 ,19.5 ,21.7 
2004/6/4,2:45:00,21.7 ,56.1 ,21.0 ,19.6 ,21.6 
2004/6/4,3:00:00,21.6 ,56.1 ,20.9 ,19.6 ,21.5 
2004/6/4,3:15:00,21.6 ,56.1 ,20.9 ,19.6 ,21.4 
2004/6/4,3:30:00,21.5 ,56.2 ,20.8 ,19.6 ,21.3 
2004/6/4,3:45:00,21.5 ,56.1 ,20.8 ,19.7 ,21.2 
2004/6/4,4:00:00,21.4 ,56.2 ,20.8 ,19.7 ,21.2 
2004/6/4,4:15:00,21.3 ,56.1 ,20.7 ,19.7 ,21.1 
2004/6/4,4:30:00,21.3 ,56.1 ,20.7 ,19.7 ,21.0 
2004/6/4,4:45:00,21.3 ,56.1 ,20.6 ,19.1 ,20.9 
2004/6/4,5:00:00,21.4 ,56.0 ,20.6 ,19.1 ,21.6 
2004/6/4,5:15:00,21.5 ,55.6 ,20.6 ,19.1 ,21.6 
2004/6/4,5:30:00,21.7 ,55.2 ,20.6 ,19.1 ,21.6 
2004/6/4,5:45:00,21.8 ,54.6 ,20.6 ,19.2 ,21.6 
2004/6/4,6:00:00,21.9 ,54.3 ,20.6 ,19.2 ,21.6 
2004/6/4,6:15:00,22.0 ,54.2 ,20.6 ,19.2 ,21.6 
2004/6/4,6:30:00,22.1 ,54.0 ,20.6 ,19.1 ,21.6 
2004/6/4,6:45:00,22.3 ,54.0 ,20.6 ,18.9 ,21.7 
2004/6/4,7:00:00,22.4 ,53.8 ,20.7 ,19.0 ,21.8 
2004/6/4,7:15:00,22.5 ,53.9 ,20.7 ,19.0 ,21.9 
2004/6/4,7:30:00,22.6 ,53.6 ,20.7 ,19.0 ,22.1 
2004/6/4,7:45:00,22.9 ,53.2 ,20.8 ,19.1 ,22.3 
2004/6/4,8:00:00,23.0 ,53.2 ,20.8 ,18.8 ,22.5 
2004/6/4,8:15:00,23.2 ,53.1 ,20.9 ,18.9 ,22.6 
2004/6/4,8:30:00,23.1 ,53.2 ,20.9 ,18.9 ,22.8 
2004/6/4,8:45:00,23.2 ,52.9 ,21.0 ,18.9 ,22.8 
2004/6/4,9:00:00,23.2 ,52.9 ,21.0 ,18.8 ,22.9 
2004/6/4,9:15:00,23.3 ,52.9 ,21.1 ,18.9 ,23.0 
2004/6/4,9:30:00,23.4 ,52.6 ,21.1 ,18.9 ,23.1 
2004/6/4,9:45:00,23.5 ,52.0 ,21.2 ,19.0 ,23.3 
2004/6/4,10:00:00,23.6 ,50.2 ,21.2 ,19.0 ,23.4 
2004/6/4,10:15:00,23.8 ,48.2 ,21.3 ,19.1 ,23.6 
2004/6/4,10:30:00,23.8 ,49.4 ,21.3 ,19.1 ,23.6 
2004/6/4,10:45:00,23.7 ,48.7 ,21.4 ,18.9 ,23.7 
2004/6/4,11:00:00,23.8 ,48.7 ,21.4 ,18.9 ,23.7 
2004/6/4,11:15:00,23.9 ,48.8 ,21.5 ,19.0 ,23.8 
2004/6/4,11:30:00,23.9 ,48.6 ,21.5 ,19.0 ,23.8 
2004/6/4,11:45:00,23.9 ,48.4 ,21.6 ,19.0 ,23.8 
2004/6/4,12:00:00,23.9 ,48.7 ,21.6 ,19.1 ,23.9 
2004/6/4,12:15:00,24.0 ,49.0 ,21.7 ,19.1 ,23.9 
2004/6/4,12:30:00,24.1 ,48.4 ,21.7 ,19.2 ,24.0 
2004/6/4,12:45:00,24.2 ,48.4 ,21.8 ,19.2 ,24.1 
2004/6/4,13:00:00,24.2 ,47.5 ,21.8 ,19.3 ,24.1 
2004/6/4,13:15:00,24.2 ,47.0 ,21.9 ,19.3 ,24.1 
2004/6/4,13:30:00,24.2 ,47.1 ,21.9 ,19.4 ,24.2 
2004/6/4,13:45:00,24.3 ,46.5 ,21.9 ,19.4 ,24.2 
2004/6/4,14:00:00,24.3 ,47.3 ,22.0 ,19.5 ,24.2 
2004/6/4,14:15:00,24.2 ,48.0 ,22.0 ,19.5 ,24.2 
2004/6/4,14:30:00,24.2 ,48.3 ,22.1 ,19.6 ,24.2 
2004/6/4,14:45:00,24.3 ,47.4 ,22.1 ,19.6 ,24.2 
2004/6/4,15:00:00,24.2 ,48.3 ,22.1 ,19.7 ,24.3 
2004/6/4,15:15:00,24.2 ,49.5 ,22.2 ,18.9 ,24.2 
2004/6/4,15:30:00,24.2 ,49.4 ,22.2 ,18.9 ,24.2 
2004/6/4,15:45:00,24.3 ,48.1 ,22.3 ,19.0 ,24.3 
2004/6/4,16:00:00,24.3 ,48.4 ,22.3 ,19.0 ,24.3 
2004/6/4,16:15:00,24.2 ,47.6 ,22.3 ,19.1 ,24.3 
2004/6/4,16:30:00,24.2 ,47.4 ,22.3 ,19.1 ,24.2 
2004/6/4,16:45:00,24.2 ,46.6 ,22.4 ,19.2 ,24.2 
2004/6/4,17:00:00,24.0 ,47.6 ,22.4 ,19.3 ,24.1 
2004/6/4,17:15:00,24.0 ,47.9 ,22.4 ,19.3 ,24.1 
2004/6/4,17:30:00,24.1 ,48.7 ,22.4 ,19.4 ,24.1 
2004/6/4,17:45:00,24.1 ,49.0 ,22.4 ,19.4 ,24.2 
2004/6/4,18:00:00,24.1 ,48.6 ,22.4 ,19.5 ,24.2 
2004/6/4,18:15:00,24.0 ,49.0 ,22.4 ,19.5 ,24.2 
2004/6/4,18:30:00,23.8 ,50.0 ,22.4 ,19.6 ,24.1 
2004/6/4,18:45:00,23.8 ,50.7 ,22.4 ,19.6 ,24.1 
2004/6/4,19:00:00,23.7 ,51.2 ,22.4 ,19.7 ,24.0 
2004/6/4,19:15:00,23.6 ,51.8 ,22.4 ,19.7 ,23.9 
2004/6/4,19:30:00,23.6 ,52.2 ,22.4 ,19.7 ,23.9 
2004/6/4,19:45:00,23.8 ,51.8 ,22.4 ,19.2 ,24.5 
2004/6/4,20:00:00,23.8 ,52.1 ,22.4 ,19.2 ,27.6 
2004/6/4,20:15:00,24.1 ,51.9 ,22.4 ,19.2 ,27.8 
2004/6/4,20:30:00,23.6 ,53.5 ,22.4 ,19.3 ,26.8 
2004/6/4,20:45:00,23.3 ,54.8 ,22.3 ,19.3 ,25.9 
2004/6/4,21:00:00,23.6 ,54.9 ,22.2 ,19.4 ,25.3 
2004/6/4,21:15:00,23.5 ,54.3 ,22.2 ,19.4 ,25.0 
2004/6/4,21:30:00,23.5 ,54.0 ,22.2 ,19.5 ,24.8 
2004/6/4,21:45:00,23.5 ,53.9 ,22.2 ,19.5 ,24.6 
2004/6/4,22:00:00,23.5 ,54.8 ,22.2 ,19.6 ,24.4 
2004/6/4,22:15:00,23.5 ,55.0 ,22.2 ,19.6 ,24.3 
2004/6/4,22:30:00,23.6 ,54.8 ,22.2 ,19.6 ,24.7 
2004/6/4,22:45:00,23.6 ,54.3 ,22.2 ,19.7 ,24.7 
2004/6/4,23:00:00,23.6 ,54.5 ,22.2 ,19.3 ,24.6 
2004/6/4,23:15:00,23.5 ,55.3 ,22.2 ,19.3 ,24.5 
2004/6/4,23:30:00,23.4 ,55.5 ,22.2 ,19.3 ,24.3 
2004/6/4,23:45:00,23.4 ,55.7 ,22.2 ,19.3 ,24.2 
2004/6/5,0:00:00,23.4 ,55.5 ,22.1 ,19.3 ,24.0 
2004/6/5,0:15:00,23.2 ,55.5 ,22.1 ,19.4 ,23.8 
2004/6/5,0:30:00,23.1 ,55.3 ,22.1 ,19.4 ,23.7 
2004/6/5,0:45:00,23.1 ,56.7 ,22.0 ,19.4 ,23.4 
2004/6/5,1:00:00,23.0 ,56.2 ,22.0 ,19.5 ,23.2 
2004/6/5,1:15:00,23.0 ,56.1 ,22.0 ,19.5 ,23.1 
2004/6/5,1:30:00,22.9 ,56.0 ,21.9 ,19.5 ,23.0 
2004/6/5,1:45:00,22.8 ,56.2 ,21.9 ,19.6 ,22.8 
2004/6/5,2:00:00,22.8 ,56.2 ,21.9 ,19.6 ,22.7 
2004/6/5,2:15:00,22.7 ,56.3 ,21.8 ,19.7 ,22.7 
2004/6/5,2:30:00,22.7 ,56.4 ,21.8 ,19.7 ,22.7 
2004/6/5,2:45:00,22.6 ,56.4 ,21.7 ,19.7 ,22.6 
2004/6/5,3:00:00,22.6 ,56.7 ,21.7 ,19.8 ,22.5 
2004/6/5,3:15:00,22.5 ,56.7 ,21.7 ,19.8 ,22.4 
2004/6/5,3:30:00,22.5 ,56.8 ,21.6 ,19.9 ,22.3 
2004/6/5,3:45:00,22.4 ,56.9 ,21.6 ,19.9 ,22.2 
2004/6/5,4:00:00,22.4 ,57.0 ,21.6 ,19.9 ,22.1 
2004/6/5,4:15:00,22.4 ,57.2 ,21.5 ,20.0 ,22.2 
2004/6/5,4:30:00,22.3 ,57.2 ,21.5 ,20.0 ,22.1 
2004/6/5,4:45:00,22.3 ,57.2 ,21.5 ,20.0 ,22.1 
2004/6/5,5:00:00,22.3 ,57.2 ,21.5 ,20.1 ,22.1 
2004/6/5,5:15:00,22.4 ,57.0 ,21.4 ,19.4 ,22.1 
2004/6/5,5:30:00,22.5 ,56.6 ,21.4 ,19.3 ,22.1 
2004/6/5,5:45:00,22.7 ,56.0 ,21.4 ,19.3 ,22.2 
2004/6/5,6:00:00,22.7 ,55.9 ,21.5 ,19.3 ,22.3 
2004/6/5,6:15:00,22.9 ,55.4 ,21.5 ,19.4 ,22.7 
2004/6/5,6:30:00,23.0 ,55.3 ,21.5 ,19.4 ,22.9 
2004/6/5,6:45:00,23.1 ,55.3 ,21.5 ,19.3 ,23.0 
2004/6/5,7:00:00,23.2 ,55.2 ,21.6 ,19.4 ,23.1 
2004/6/5,7:15:00,23.3 ,55.2 ,21.6 ,19.4 ,23.2 
2004/6/5,7:30:00,23.0 ,57.4 ,21.6 ,19.2 ,23.5 
2004/6/5,7:45:00,23.8 ,55.2 ,21.6 ,19.3 ,24.0 
2004/6/5,8:00:00,24.0 ,54.8 ,21.7 ,19.4 ,24.2 
2004/6/5,8:15:00,23.9 ,55.5 ,21.8 ,19.4 ,24.4 
2004/6/5,8:30:00,24.0 ,55.6 ,21.8 ,19.4 ,24.4 
2004/6/5,8:45:00,24.1 ,55.9 ,21.9 ,19.5 ,24.4 
2004/6/5,9:00:00,24.3 ,54.6 ,22.0 ,19.5 ,24.4 
2004/6/5,9:15:00,24.3 ,54.1 ,22.4 ,19.6 ,24.5 
2004/6/5,9:30:00,24.4 ,52.0 ,22.5 ,19.6 ,24.6 
2004/6/5,9:45:00,24.5 ,52.0 ,22.6 ,19.4 ,24.6 
2004/6/5,10:00:00,24.5 ,50.5 ,22.8 ,19.4 ,24.6 
2004/6/5,10:15:00,24.5 ,49.3 ,23.0 ,19.4 ,24.7 
2004/6/5,10:30:00,24.6 ,48.2 ,23.1 ,19.5 ,24.7 
2004/6/5,10:45:00,24.6 ,47.5 ,23.3 ,19.5 ,24.8 
2004/6/5,11:00:00,25.0 ,46.6 ,23.5 ,19.5 ,24.9 
2004/6/5,11:15:00,24.9 ,47.0 ,23.6 ,19.2 ,25.0 
2004/6/5,11:30:00,24.8 ,47.2 ,23.6 ,19.3 ,25.0 
2004/6/5,11:45:00,24.6 ,48.0 ,23.6 ,19.4 ,25.0 
2004/6/5,12:00:00,24.6 ,48.9 ,23.6 ,19.4 ,25.0 
2004/6/5,12:15:00,24.9 ,48.1 ,23.6 ,19.5 ,25.0 
2004/6/5,12:30:00,25.2 ,48.4 ,23.7 ,19.5 ,25.2 
2004/6/5,12:45:00,25.1 ,47.8 ,23.9 ,19.3 ,25.4 
2004/6/5,13:00:00,25.5 ,45.7 ,23.9 ,19.3 ,25.6 
2004/6/5,13:15:00,25.3 ,47.2 ,23.8 ,19.4 ,25.6 
2004/6/5,13:30:00,25.3 ,47.2 ,23.7 ,19.4 ,25.6 
2004/6/5,13:45:00,25.3 ,45.2 ,23.6 ,19.5 ,25.6 
2004/6/5,14:00:00,25.3 ,44.8 ,23.6 ,19.5 ,25.6 
2004/6/5,14:15:00,25.3 ,45.1 ,23.6 ,19.6 ,25.7 
2004/6/5,14:30:00,25.3 ,44.9 ,23.6 ,19.6 ,25.7 
2004/6/5,14:45:00,25.2 ,43.8 ,23.5 ,19.7 ,25.6 
2004/6/5,15:00:00,25.3 ,43.9 ,23.5 ,19.7 ,25.6 
2004/6/5,15:15:00,25.2 ,45.4 ,23.5 ,19.8 ,25.6 
2004/6/5,15:30:00,25.2 ,44.9 ,23.5 ,19.8 ,25.6 
2004/6/5,15:45:00,25.1 ,43.5 ,23.5 ,19.9 ,25.6 
2004/6/5,16:00:00,25.2 ,44.5 ,23.5 ,19.9 ,25.6 
2004/6/5,16:15:00,25.1 ,45.6 ,23.5 ,20.0 ,25.5 
2004/6/5,16:30:00,25.1 ,46.0 ,23.5 ,20.1 ,25.5 
2004/6/5,16:45:00,25.0 ,46.1 ,23.5 ,20.2 ,25.5 
2004/6/5,17:00:00,25.0 ,46.5 ,23.5 ,20.2 ,25.4 
2004/6/5,17:15:00,24.9 ,47.2 ,23.5 ,20.3 ,25.4 
2004/6/5,17:30:00,24.9 ,47.4 ,23.5 ,20.4 ,25.3 
2004/6/5,17:45:00,24.5 ,50.7 ,23.5 ,20.4 ,25.2 
2004/6/5,18:00:00,24.4 ,49.5 ,23.5 ,20.5 ,25.1 
2004/6/5,18:15:00,23.9 ,53.0 ,23.4 ,20.5 ,24.9 
2004/6/5,18:30:00,23.4 ,55.5 ,23.3 ,20.6 ,24.7 
2004/6/5,18:45:00,22.8 ,56.9 ,23.2 ,20.6 ,24.5 
2004/6/5,19:00:00,23.2 ,56.3 ,23.1 ,20.7 ,24.2 
2004/6/5,19:15:00,23.4 ,56.8 ,23.3 ,19.8 ,24.4 
2004/6/5,19:30:00,23.4 ,56.4 ,23.2 ,19.8 ,24.4 
2004/6/5,19:45:00,23.1 ,56.1 ,23.1 ,19.9 ,24.3 
2004/6/5,20:00:00,23.3 ,55.3 ,23.1 ,19.4 ,24.2 
2004/6/5,20:15:00,23.4 ,55.3 ,23.1 ,19.4 ,24.2 
2004/6/5,20:30:00,23.3 ,55.1 ,23.1 ,19.5 ,24.2 
2004/6/5,20:45:00,23.3 ,54.8 ,23.1 ,19.5 ,24.3 
2004/6/5,21:00:00,23.6 ,54.2 ,23.1 ,19.5 ,24.5 
2004/6/5,21:15:00,23.5 ,52.7 ,23.2 ,19.4 ,24.7 
2004/6/5,21:30:00,23.4 ,52.5 ,23.2 ,19.3 ,24.6 
2004/6/5,21:45:00,23.4 ,52.9 ,23.2 ,19.4 ,24.5 
2004/6/5,22:00:00,23.6 ,53.1 ,23.2 ,19.4 ,24.4 
2004/6/5,22:15:00,23.7 ,53.4 ,23.1 ,19.4 ,24.4 
2004/6/5,22:30:00,23.4 ,55.3 ,23.1 ,19.5 ,24.3 
2004/6/5,22:45:00,23.6 ,55.1 ,23.0 ,19.5 ,24.3 
2004/6/5,23:00:00,23.6 ,55.2 ,22.9 ,19.6 ,24.3 
2004/6/5,23:15:00,23.5 ,55.5 ,22.9 ,19.6 ,24.3 
2004/6/5,23:30:00,23.6 ,55.8 ,22.9 ,19.7 ,24.3 
2004/6/5,23:45:00,23.7 ,55.9 ,22.8 ,19.5 ,24.3 
2004/6/6,0:00:00,23.7 ,55.9 ,23.0 ,19.8 ,24.3 
2004/6/6,0:15:00,23.7 ,55.7 ,23.0 ,19.9 ,24.2 
2004/6/6,0:30:00,23.7 ,55.7 ,23.0 ,19.9 ,24.1 
2004/6/6,0:45:00,23.6 ,55.6 ,23.1 ,19.9 ,24.1 
2004/6/6,1:00:00,23.6 ,55.6 ,23.1 ,20.0 ,24.1 
2004/6/6,1:15:00,23.5 ,55.6 ,23.2 ,20.0 ,24.0 
2004/6/6,1:30:00,23.5 ,55.6 ,23.2 ,20.1 ,24.0 
2004/6/6,1:45:00,23.5 ,55.6 ,23.2 ,19.6 ,23.9 
2004/6/6,2:00:00,23.4 ,55.7 ,23.3 ,19.6 ,23.9 
2004/6/6,2:15:00,23.4 ,55.6 ,23.3 ,19.7 ,23.8 
2004/6/6,2:30:00,23.4 ,55.7 ,23.4 ,19.7 ,23.8 
2004/6/6,2:45:00,23.4 ,55.8 ,23.4 ,19.7 ,23.8 
2004/6/6,3:00:00,23.3 ,55.7 ,23.4 ,19.8 ,23.8 